Location: Mentone
(34.5413°N, 85.5351°W)
Time: 12:27:00
(UTC-05:00)

Vanguard 1 - Visible Passes

Search period start: 31 July 2015 00:00
Search period end: 10 August 2015 00:00
Orbit: 649 x 3836 km, 34.3° (Epoch: 28 July)

Date Brightness Start Highest point End Pass type
(mag) Time Alt. Az. Time Alt. Az. Time Alt. Az.
31 Jul 12.9 02:28:07 34° S 02:33:56 40° SE 02:54:47 10° ENE visible
31 Jul 13.0 04:40:49 16° WSW 04:59:21 75° SSE 05:22:15 10° ENE visible
01 Aug 13.6 00:35:09 15° ESE 00:35:09 15° ESE 00:42:47 10° E visible
01 Aug 12.7 02:47:51 37° S 02:55:02 50° SE 03:17:08 10° ENE visible
01 Aug 13.0 05:00:34 11° WSW 05:21:14 81° SSE 05:44:01 10° E visible
02 Aug 13.3 00:54:52 22° SE 00:54:52 22° SE 01:08:02 10° E visible
02 Aug 12.6 03:07:34 37° SSW 03:16:18 59° SSE 03:39:16 10° ENE visible
02 Aug 13.1 05:21:42 10° WSW 05:43:16 86° S 06:05:46 10° E visible
03 Aug 13.0 01:14:34 30° SE 01:14:34 30° SE 01:31:39 10° E visible
03 Aug 12.6 03:27:16 34° SW 03:37:44 68° SSE 04:01:16 10° ENE visible
04 Aug 12.7 01:34:15 39° SE 01:35:01 39° SE 01:54:32 10° ENE visible
04 Aug 12.7 03:46:57 29° SW 03:59:22 75° SSE 04:23:12 10° ENE visible
04 Aug 13.7 23:41:12 10° ESE 23:41:12 10° ESE 23:41:20 10° ESE visible
05 Aug 12.4 01:53:54 47° SSE 01:55:58 48° SE 02:16:59 10° ENE visible
05 Aug 12.8 04:06:36 23° WSW 04:21:11 82° SSE 04:45:07 10° E visible
06 Aug 13.4 00:00:50 17° ESE 00:00:50 17° ESE 00:07:14 10° E visible
06 Aug 12.3 02:13:32 52° S 02:17:04 58° SSE 02:39:12 10° ENE visible
06 Aug 12.9 04:26:14 17° WSW 04:43:08 86° S 05:07:03 10° E visible
07 Aug 13.1 00:20:28 25° ESE 00:20:28 25° ESE 00:30:58 10° E visible
07 Aug 12.2 02:33:10 51° SSW 02:38:23 67° SSE 03:01:19 10° ENE visible
07 Aug 12.9 04:45:51 11° W 05:05:13 89° S 05:28:58 10° E visible
08 Aug 12.8 00:40:06 34° ESE 00:40:06 34° ESE 00:53:54 10° ENE visible
08 Aug 12.3 02:52:47 46° SW 02:59:54 75° SSE 03:23:23 10° ENE visible
08 Aug 13.0 05:07:11 10° W 05:27:20 89° S 05:50:50 10° E visible
09 Aug 12.4 00:59:42 45° ESE 00:59:42 45° ESE 01:16:25 10° ENE visible
09 Aug 12.4 03:12:25 38° WSW 03:21:36 82° SSE 03:45:26 10° E visible
09 Aug 13.1 05:28:48 10° W 05:49:27 88° S 06:12:39 10° ESE visible
